Wind_Speed
17 15 13 13 12 13 15 15 13 8 7 9 11 11 12 14 15 17 17 15 14 15 15 14 14 13 12 12 11 10 11 10 11 11 13 14 17 18 18 18 18 17 15 14
17 15 15 15 15 15 17 17 13 9 8 10 11 11 13 15 17 19 19 16 13 14 13 12 12 12 12 11 10 10 9 8 9 11 13 14 18 18 18 18 17 16 15 15
16 16 17 17 16 17 17 16 14 12 12 13 14 14 14 16 19 19 19 15 12 14 13 12 11 12 12 11 10 10 9 8 8 10 13 16 18 18 18 17 16 15 15 16
18 18 18 18 18 17 17 15 15 15 16 16 17 18 17 18 19 19 16 14 13 12 11 11 11 11 11 10 10 9 9 8 8 9 11 14 16 18 19 18 17 16 15 16
18 18 18 18 17 17 16 15 16 17 18 19 20 20 18 18 17 16 15 13 11 9 9 10 10 10 10 10 10 9 8 8 8 10 11 13 17 18 19 19 18 16 16 16
19 20 19 17 15 15 14 15 17 19 19 18 18 20 19 19 18 15 13 10 7 8 8 9 10 10 9 10 10 9 8 7 6 8 11 13 16 18 19 19 17 16 16 16
20 20 18 16 15 14 15 16 17 18 17 14 14 16 17 17 17 15 12 8 6 6 8 9 10 10 9 9 9 8 7 6 7 9 11 13 15 17 19 19 18 17 17 17
19 17 16 15 13 13 15 16 16 16 15 13 12 13 13 14 15 13 10 7 6 6 7 8 9 9 10 9 9 8 7 5 5 8 11 13 15 17 20 20 19 18 18 18
18 16 16 15 13 13 15 16 15 15 15 15 14 13 13 13 13 10 9 8 7 7 8 8 8 9 10 10 9 8 6 5 6 8 9 12 15 18 20 20 20 19 19 19
18 19 18 17 16 15 14 14 16 18 18 17 16 15 13 12 12 11 10 9 8 8 8 9 9 9 9 9 8 7 6 6 6 8 9 11 14 18 20 21 21 20 19 19
19 20 19 18 18 17 16 17 19 20 21 21 19 16 15 14 13 12 11 11 11 10 10 10 10 10 9 9 8 7 6 6 6 7 9 10 12 15 17 19 20 20 20 19
20 21 21 20 20 20 19 19 20 21 21 22 22 19 17 17 16 15 14 13 13 12 12 13 12 11 10 9 7 7 6 6 6 7 8 8 10 13 16 17 19 20 20 20
23 25 24 24 23 23 22 21 22 22 22 23 23 20 19 19 18 17 16 15 14 13 14 13 12 11 10 9 8 6 7 6 6 6 7 8 9 11 14 16 17 18 19 19
27 27 27 27 27 26 25 25 25 25 24 24 24 23 22 23 22 21 19 17 16 16 15 14 12 12 11 9 9 8 7 6 6 5 7 9 10 11 13 14 16 17 19 19
31 31 29 28 28 29 27 27 28 28 28 27 27 26 26 25 25 23 21 19 19 18 16 14 15 14 12 11 10 9 9 8 8 7 8 9 11 12 13 14 15 17 18 19
32 32 31 31 30 29 28 29 30 30 30 30 30 29 28 26 25 23 21 20 20 20 19 17 16 16 13 12 12 11 10 11 10 10 10 11 11 12 13 14 16 16 16 17
33 32 32 32 30 29 30 30 32 33 32 32 33 32 31 29 27 26 24 23 22 21 21 20 19 16 15 14 13 13 13 12 13 13 13 13 13 13 13 15 16 18 17 17
34 34 32 31 31 31 30 31 32 32 31 31 31 31 31 30 28 27 25 25 24 23 23 21 19 18 17 16 15 14 14 14 14 14 14 14 14 14 15 16 16 18 19 19
35 33 32 31 31 31 31 31 32 32 32 31 30 30 31 32 31 29 28 27 26 26 25 23 21 20 18 17 16 16 16 16 16 15 14 14 14 14 15 16 18 19 19 20
35 32 31 31 30 29 28 29 31 32 32 31 31 31 31 32 33 31 30 29 29 28 27 25 23 21 20 19 18 17 17 17 17 17 16 15 15 15 16 17 18 19 19 20
33 32 30 29 30 29 27 27 29 30 30 30 31 32 32 33 33 32 31 30 28 27 27 26 24 22 21 20 19 19 19 18 18 18 17 17 17 17 18 18 19 19 20 20
30 30 29 28 28 28 26 27 29 30 29 30 30 31 32 32 31 31 30 28 27 26 27 26 24 23 22 22 21 21 20 20 19 19 19 19 19 19 19 20 20 21 21 22
30 29 29 29 27 26 26 26 27 27 28 28 29 30 31 31 30 29 27 25 25 25 25 26 24 23 22 22 22 22 21 21 21 21 21 20 21 21 21 21 21 22 22 23
29 28 28 27 27 27 26 25 26 25 26 27 28 28 28 28 27 26 26 25 25 24 24 25 24 23 23 23 23 22 22 22 22 22 22 22 22 22 22 23 23 24 24 25
29 27 26 25 25 26 25 25 25 25 26 25 25 25 25 25 25 25 24 24 23 23 23 23 23 23 23 23 23 23 23 23 23 22 22 22 22 23 24 24 24 24 25 25
25 25 24 23 22 22 22 23 23 24 24 24 22 22 23 23 23 23 22 23 23 22 22 23 23 23 23 23 23 23 22 22 22 22 22 22 22 23 23 24 24 25 26 26
Wind_Direction
262 261 257 252 242 232 227 224 222 224 250 258 260 272 286 290 295 299 304 312 320 327 330 330 325 322 317 316 308 296 286 273 258 244 234 227 214 212 211 208 207 209 212 215
258 255 249 245 238 232 231 230 228 228 246 255 264 276 287 291 294 298 301 308 315 323 326 330 330 328 320 319 318 312 300 274 250 237 231 220 210 211 210 205 203 206 211 214
254 248 245 242 237 233 231 234 232 232 243 253 262 267 272 278 284 290 298 302 310 321 324 325 328 327 324 322 320 312 304 280 258 240 225 214 206 209 209 203 201 205 212 212
246 246 245 243 238 234 230 229 230 232 238 245 255 262 264 273 279 284 293 302 304 315 322 322 324 325 325 322 321 313 302 290 262 240 221 210 207 205 204 203 204 208 211 210
243 240 240 240 238 235 230 228 231 235 242 247 252 259 260 269 276 283 287 297 302 311 321 326 328 328 324 321 321 314 302 286 266 235 215 209 205 203 201 203 204 209 209 210
240 239 239 237 235 234 229 230 232 236 244 252 256 258 259 265 270 273 283 290 299 319 324 333 334 333 327 324 324 317 307 293 271 230 214 207 205 204 202 202 206 208 208 208
239 237 236 233 233 231 231 233 235 239 246 250 256 260 264 270 270 269 274 276 299 322 325 334 335 335 330 327 325 318 312 292 258 231 220 215 208 206 204 202 204 206 207 209
233 229 229 229 231 233 235 235 238 242 242 243 252 263 271 278 276 268 268 272 293 316 321 329 326 333 333 329 325 321 307 288 259 234 226 219 210 204 204 203 204 206 209 211
229 219 214 216 219 227 231 233 236 240 237 242 253 263 274 283 281 271 271 280 300 311 309 324 323 323 324 327 327 321 303 285 261 240 230 221 212 207 206 206 207 210 213 215
226 220 213 213 218 223 226 229 233 236 241 246 251 264 279 284 294 282 282 280 288 300 305 316 318 316 317 318 321 319 298 286 271 246 231 219 212 209 210 211 211 214 216 218
221 220 215 215 218 221 224 226 233 238 242 248 253 259 273 284 289 284 287 287 287 298 300 312 314 311 312 312 313 311 304 284 273 245 233 222 213 212 211 212 213 215 217 221
223 223 217 217 219 222 226 229 233 239 243 246 253 257 267 274 280 282 283 282 283 289 300 305 308 309 308 309 308 302 297 287 266 244 232 222 212 212 212 213 215 218 221 222
223 225 220 219 224 228 229 231 235 240 244 247 252 257 261 267 271 277 278 277 279 285 294 301 303 305 304 306 302 291 286 281 267 248 236 229 224 219 218 218 219 221 223 226
225 228 228 226 229 234 235 236 239 243 246 248 250 253 257 263 266 270 277 280 285 294 294 296 300 301 298 299 291 280 276 270 274 264 247 241 233 229 224 220 221 224 226 228
228 230 232 234 236 240 242 243 245 247 249 251 251 252 257 261 264 267 273 278 283 292 294 296 297 296 294 295 288 279 276 267 264 260 253 246 237 234 230 227 225 226 228 232
229 232 234 237 241 244 245 245 247 250 250 251 254 254 256 261 264 268 271 274 281 287 290 289 291 290 288 290 283 279 274 267 262 260 256 246 241 239 236 235 233 232 234 239
235 237 239 241 244 246 247 248 248 248 250 251 252 254 256 260 264 266 268 271 276 281 284 285 288 285 283 285 277 276 272 265 261 259 256 252 248 243 240 239 236 235 238 243
239 242 243 244 242 243 245 247 247 249 250 253 254 257 257 260 263 266 267 270 273 274 276 277 276 275 279 277 275 274 269 262 260 259 259 254 250 246 244 243 241 242 244 247
238 242 245 245 245 245 244 245 248 249 251 253 256 259 260 261 263 265 267 269 272 274 274 274 272 271 273 271 269 267 265 265 263 260 260 260 256 252 252 250 249 250 253 256
238 241 245 246 246 245 242 246 248 250 252 255 257 260 262 262 261 263 266 269 271 272 273 272 271 269 267 268 267 266 265 265 264 261 259 261 258 258 258 260 259 258 260 260
238 240 244 246 246 247 246 246 249 252 254 256 257 259 261 262 263 263 265 267 268 267 268 268 267 265 265 265 264 264 264 264 262 262 259 262 263 261 262 263 263 261 260 262
237 240 242 246 248 250 251 252 252 254 255 256 256 257 260 261 260 262 263 264 263 263 264 265 263 262 262 262 262 262 262 264 262 259 259 260 262 263 264 264 265 265 264 267
238 242 245 248 251 252 253 254 256 256 256 256 256 257 259 260 260 261 261 260 262 263 262 261 260 260 259 259 259 260 260 260 261 261 260 261 262 264 266 267 269 269 267 270
241 244 245 247 249 252 253 256 257 257 258 258 258 258 259 260 259 258 258 258 259 260 258 255 256 257 257 257 257 257 259 261 261 262 262 264 267 268 269 272 273 274 273 274
240 244 247 249 252 254 255 259 261 260 260 259 261 260 259 258 258 258 257 257 258 257 255 253 255 257 258 258 256 257 257 260 262 263 263 264 267 267 269 273 275 275 276 276
240 243 245 248 251 256 260 263 263 262 261 259 260 260 259 258 256 255 254 254 255 256 254 253 255 256 257 257 258 259 260 260 261 263 264 264 268 271 273 275 276 277 279 278
Height
5869 5871 5871 5871 5871 5872 5872 5872 5873 5873 5874 5873 5873 5873 5873 5873 5873 5872 5871 5869 5868 5865 5862 5860 5858 5855 5854 5852 5851 5850 5850 5850 5851 5851 5853 5856 5859 5862 5864 5867 5870 5872 5875 5877
5865 5866 5866 5866 5867 5868 5868 5869 5870 5871 5871 5871 5870 5870 5870 5870 5870 5869 5868 5867 5865 5863 5861 5859 5857 5855 5852 5851 5849 5848 5847 5847 5847 5848 5850 5853 5856 5859 5861 5864 5867 5869 5872 5874
5860 5862 5861 5862 5863 5864 5865 5866 5867 5868 5869 5868 5868 5868 5868 5868 5867 5866 5865 5864 5862 5861 5859 5858 5855 5853 5851 5849 5847 5846 5845 5844 5844 5845 5847 5849 5852 5856 5859 5862 5864 5867 5869 5872
5855 5856 5857 5858 5859 5860 5861 5863 5864 5865 5865 5865 5866 5866 5866 5866 5865 5864 5862 5861 5859 5859 5858 5856 5854 5851 5849 5848 5846 5845 5844 5842 5842 5843 5844 5847 5850 5853 5856 5859 5862 5864 5867 5869
5850 5851 5852 5854 5855 5856 5857 5859 5860 5861 5862 5862 5863 5863 5864 5863 5862 5861 5859 5858 5856 5857 5856 5854 5851 5849 5848 5846 5845 5843 5842 5841 5840 5840 5842 5844 5848 5851 5853 5856 5859 5862 5864 5867
5845 5846 5847 5849 5851 5852 5853 5855 5856 5857 5858 5859 5860 5859 5860 5859 5859 5858 5857 5856 5854 5854 5853 5851 5849 5847 5846 5844 5843 5841 5839 5838 5837 5838 5840 5842 5845 5848 5851 5854 5857 5859 5862 5864
5840 5841 5843 5845 5846 5848 5850 5852 5853 5854 5855 5856 5856 5856 5856 5856 5855 5855 5854 5854 5853 5852 5850 5849 5847 5846 5844 5842 5841 5839 5838 5837 5837 5838 5838 5841 5843 5846 5849 5852 5854 5857 5860 5862
5834 5838 5839 5841 5842 5844 5846 5848 5850 5851 5852 5853 5853 5852 5853 5852 5850 5851 5851 5851 5850 5849 5848 5847 5846 5844 5843 5841 5839 5838 5836 5835 5835 5836 5837 5839 5841 5843 5846 5849 5852 5854 5857 5859
5830 5833 5835 5837 5839 5841 5842 5844 5846 5848 5848 5849 5849 5850 5849 5849 5847 5847 5848 5848 5848 5847 5846 5845 5844 5843 5841 5840 5838 5836 5835 5834 5834 5834 5835 5836 5838 5841 5843 5846 5849 5851 5854 5856
5825 5829 5831 5833 5835 5836 5839 5841 5842 5843 5844 5844 5846 5846 5846 5845 5845 5845 5845 5845 5845 5845 5844 5842 5842 5841 5839 5838 5836 5835 5834 5833 5832 5832 5833 5834 5836 5838 5840 5843 5845 5848 5850 5853
5821 5825 5827 5829 5831 5833 5835 5837 5838 5839 5840 5841 5842 5845 5843 5843 5842 5842 5842 5842 5842 5842 5842 5840 5839 5838 5837 5836 5834 5833 5832 5831 5830 5830 5831 5832 5833 5835 5837 5840 5842 5845 5847 5849
5816 5820 5822 5825 5827 5829 5830 5832 5833 5835 5836 5837 5837 5842 5839 5839 5839 5839 5839 5838 5838 5838 5838 5838 5837 5836 5835 5833 5832 5832 5831 5830 5829 5828 5829 5830 5831 5833 5835 5837 5839 5841 5843 5845
5812 5814 5818 5821 5824 5825 5826 5827 5828 5830 5831 5832 5833 5837 5835 5835 5835 5835 5835 5835 5835 5835 5835 5835 5834 5834 5832 5831 5830 5830 5829 5829 5828 5827 5828 5829 5829 5831 5832 5834 5836 5838 5840 5842
5807 5809 5813 5817 5818 5820 5821 5823 5824 5825 5826 5827 5828 5830 5830 5830 5831 5832 5831 5831 5832 5831 5831 5832 5831 5831 5829 5828 5828 5828 5827 5827 5827 5827 5827 5828 5828 5829 5830 5832 5833 5835 5836 5839
5801 5804 5807 5811 5813 5815 5817 5818 5819 5820 5821 5822 5824 5825 5825 5826 5827 5827 5828 5828 5828 5828 5828 5828 5828 5828 5826 5826 5825 5826 5826 5826 5826 5826 5826 5826 5827 5827 5828 5829 5830 5831 5833 5835
5796 5799 5802 5805 5807 5809 5811 5813 5814 5814 5815 5816 5818 5820 5821 5822 5823 5823 5824 5824 5824 5824 5825 5825 5825 5824 5823 5823 5824 5823 5823 5823 5823 5823 5823 5823 5824 5825 5826 5826 5827 5828 5830 5831
5790 5793 5797 5799 5801 5803 5805 5806 5807 5808 5808 5810 5811 5814 5814 5816 5817 5818 5818 5819 5819 5820 5821 5821 5821 5821 5821 5820 5820 5820 5820 5820 5820 5820 5820 5820 5821 5822 5823 5823 5824 5825 5826 5827
5784 5787 5790 5793 5795 5797 5800 5798 5799 5800 5802 5803 5805 5806 5808 5809 5811 5811 5812 5812 5813 5814 5815 5816 5816 5816 5816 5816 5816 5816 5816 5816 5817 5817 5817 5817 5817 5818 5819 5819 5820 5821 5822 5823
5777 5780 5782 5785 5787 5789 5791 5792 5792 5793 5795 5797 5798 5800 5801 5802 5803 5804 5805 5806 5807 5807 5808 5809 5809 5810 5811 5812 5812 5812 5812 5812 5813 5813 5813 5813 5814 5814 5815 5816 5817 5817 5818 5818
5769 5773 5776 5777 5779 5781 5784 5784 5785 5787 5788 5790 5792 5793 5794 5794 5796 5798 5798 5799 5800 5800 5801 5802 5803 5804 5805 5806 5807 5807 5807 5808 5808 5809 5809 5810 5810 5811 5811 5812 5812 5812 5812 5812
5762 5765 5768 5770 5771 5773 5776 5778 5779 5781 5783 5784 5784 5785 5786 5787 5788 5790 5791 5792 5793 5793 5794 5795 5796 5797 5798 5799 5801 5802 5803 5803 5804 5804 5805 5805 5806 5806 5807 5807 5807 5807 5807 5807
5755 5758 5761 5763 5764 5768 5769 5771 5772 5773 5774 5775 5776 5778 5778 5779 5780 5781 5783 5783 5785 5785 5787 5788 5789 5790 5792 5794 5795 5796 5797 5798 5798 5799 5799 5800 5801 5801 5801 5801 5801 5801 5801 5801
5749 5752 5754 5757 5760 5761 5762 5763 5764 5765 5766 5767 5768 5769 5771 5772 5773 5774 5776 5777 5777 5778 5779 5780 5782 5783 5785 5787 5788 5790 5791 5792 5792 5793 5793 5794 5795 5795 5795 5795 5795 5794 5794 5794
5742 5745 5747 5750 5751 5753 5754 5755 5757 5757 5758 5759 5760 5761 5763 5764 5765 5766 5769 5770 5771 5772 5772 5773 5775 5776 5778 5780 5781 5783 5785 5785 5786 5787 5787 5788 5788 5788 5789 5788 5788 5788 5787 5786
5736 5739 5741 5742 5744 5746 5747 5748 5749 5750 5751 5751 5752 5753 5755 5756 5758 5760 5761 5763 5764 5765 5766 5767 5768 5770 5771 5773 5774 5776 5777 5779 5780 5780 5781 5781 5782 5782 5782 5781 5781 5780 5779 5778
5730 5733 5735 5737 5738 5740 5741 5741 5742 5742 5743 5744 5746 5747 5748 5749 5751 5753 5754 5756 5757 5758 5759 5761 5762 5764 5765 5767 5768 5769 5771 5772 5772 5773 5774 5774 5774 5774 5774 5774 5773 5773 5772 5770